FW7330 Weather Reports


time (UTC)temp
C
wind
direction
speed
KPH
gust
KPH
rain 1hr
cm
rain 24hr
cm
rain mn
cm
humidity
%
barometer
mb
20260831093231 12 156 0.0 3.2 0.00 0.00 0.00 88 1032.2
20260831092043 13 180 0.0 1.6 0.00 0.00 0.00 87 1032.1
20260831090751 13 179 1.6 1.6 0.00 0.00 0.00 85 1032.0
20260831085603 13 166 1.6 3.2 0.00 0.00 0.00 84 1032.0
20260831083225 14 151 1.6 3.2 0.00 0.00 0.00 81 1031.8
20260831082035 15 155 1.6 3.2 0.00 0.00 0.00 78 1031.8
20260831080926 15 180 1.6 1.6 0.00 0.00 0.00 76 1031.7
20260831075655 16 0.0 0.0 0.00 0.00 0.00 74 1031.7
20260831074446 17 0.0 0.0 0.00 0.00 0.00 71 1031.5
20260831073257 17 0.0 1.6 0.00 0.00 0.00 70 1031.5
20260831072028 18 0.0 1.6 0.00 0.00 0.00 66 1031.5
20260831070840 18 0.0 0.0 0.00 0.00 0.00 65 1031.4
20260831065548 18 353 3.2 6.4 0.00 0.00 0.00 64 1031.4
20260831064400 18 39 3.2 6.4 0.00 0.00 0.00 63 1031.3
20260831063210 19 46 3.2 6.4 0.00 0.00 0.00 64 1031.4
20260831062021 20 76 1.6 4.8 0.00 0.00 0.00 63 1031.2
20260831060833 20 184 3.2 4.8 0.00 0.00 0.00 62 1031.4
20260831055643 20 55 3.2 6.4 0.00 0.00 0.00 62 1031.4
20260831054352 20 112 3.2 6.4 0.00 0.00 0.00 63 1031.5
20260831053203 20 52 6.4 9.7 0.00 0.00 0.00 63 1031.5
20260831052014 20 105 4.8 9.7 0.00 0.00 0.00 63 1031.5
20260831050826 20 101 3.2 4.8 0.00 0.00 0.00 63 1031.5
20260831045716 20 54 4.8 9.7 0.00 0.00 0.00 63 1031.4
20260831044344 20 96 8.0 11.3 0.00 0.00 0.00 63 1031.6
20260831043156 20 93 6.4 9.7 0.00 0.00 0.00 65 1031.5
20260831042007 20 143 8.0 11.3 0.00 0.00 0.00 66 1031.7
20260831040818 20 98 8.0 12.9 0.00 0.00 0.00 67 1031.8
20260831035629 20 127 8.0 12.9 0.00 0.00 0.00 65 1031.7
20260831034442 20 130 6.4 11.3 0.00 0.00 0.00 63 1031.8
20260831033149 20 52 4.8 11.3 0.00 0.00 0.00 61 1031.7
20260831032001 20 85 6.4 12.9 0.00 0.00 0.00 61 1031.7
20260831030852 20 80 8.0 12.9 0.00 0.00 0.00 61 1032.0
20260831025624 20 87 3.2 11.3 0.00 0.00 0.00 63 1032.0
20260831024435 20 114 8.0 12.9 0.00 0.00 0.00 63 1032.3
20260831023143 19 97 4.8 12.9 0.00 0.00 0.00 64 1032.5
20260831021955 20 160 9.7 12.9 0.00 0.00 0.00 61 1032.6
20260831020806 20 127 4.8 12.9 0.00 0.00 0.00 63 1032.9
20260831015617 21 22 3.2 12.9 0.00 0.00 0.00 62 1032.9
20260831014509 20 54 4.8 14.5 0.00 0.00 0.00 60 1033.1
20260831013240 21 44 3.2 9.7 0.00 0.00 0.00 59 1033.3
20260831011948 20 29 6.4 9.7 0.00 0.00 0.00 59 1033.5
20260831010800 20 114 3.2 6.4 0.00 0.00 0.00 59 1033.6
20260831005611 19 59 4.8 11.3 0.00 0.00 0.00 62 1033.8
20260831004503 19 117 4.8 9.7 0.00 0.00 0.00 61 1033.9
20260831003234 19 58 4.8 11.3 0.00 0.00 0.00 60 1033.8
20260831002046 19 102 6.4 9.7 0.00 0.00 0.00 60 1033.9
20260831000752 19 103 4.8 9.7 0.00 0.00 0.00 58 1033.9
20260830235604 19 41 4.8 11.3 0.00 0.00 0.00 56 1034.0
20260830234415 18 34 3.2 9.7 0.00 0.00 0.00 62 1033.8
20260830233227 18 79 3.2 4.8 0.00 0.00 0.00 58 1033.7
20260830232037 18 149 0.0 4.8 0.00 0.00 0.00 59 1033.7
20260830230746 18 129 1.6 4.8 0.00 0.00 0.00 60 1033.8
20260830225557 18 255 0.0 1.6 0.00 0.00 0.00 69 1033.7
20260830224409 15 261 1.6 3.2 0.00 0.00 0.00 79 1033.8
20260830223220 13 250 3.2 4.8 0.00 0.00 0.00 84 1033.7
20260830222032 12 269 3.2 3.2 0.00 0.00 0.00 87 1033.6
20260830220842 12 270 3.2 4.8 0.00 0.00 0.00 90 1033.6
20260830215550 11 273 3.2 6.4 0.00 0.00 0.00 92 1033.5
20260830214402 11 307 3.2 3.2 0.00 0.00 0.00 96 1033.4
20260830213254 10 164 3.2 3.2 0.00 0.00 0.00 97 1033.2
20260830212106 8 181 1.6 3.2 0.00 0.00 0.00 97 1033.3
20260830210837 8 186 1.6 3.2 0.00 0.00 0.00 97 1033.1
20260830205544 7 182 0.0 1.6 0.00 0.00 0.00 97 1032.8
20260830204356 7 182 0.0 1.6 0.00 0.00 0.00 97 1032.7
20260830203208 7 184 0.0 1.6 0.00 0.00 0.00 97 1032.6
20260830202020 6 166 1.6 3.2 0.00 0.00 0.00 97 1032.5
20260830200831 6 152 1.6 3.2 0.00 0.00 0.00 97 1032.5
20260830195643 6 158 1.6 3.2 0.00 0.00 0.00 97 1032.3
20260830194351 6 0.0 0.0 0.00 0.00 0.00 97 1032.2
20260830193203 6 0.0 0.0 0.00 0.00 0.00 97 1032.2
20260830192014 7 0.0 0.0 0.00 0.00 0.00 96 1032.2
20260830190906 7 162 1.6 3.2 0.00 0.00 0.00 96 1032.1
20260830185717 7 170 1.6 1.6 0.00 0.00 0.00 96 1032.1
20260830184346 6 155 1.6 3.2 0.00 0.00 0.00 96 1032.0
20260830183157 6 0.0 0.0 0.00 0.00 0.00 96 1032.1
20260830182049 6 0.0 0.0 0.00 0.00 0.00 96 1032.3
20260830180820 7 0.0 1.6 0.00 0.00 0.00 96 1032.2
20260830175631 7 171 1.6 1.6 0.00 0.00 0.00 96 1032.3
20260830174442 7 0.0 0.0 0.00 0.00 0.00 96 1032.3
20260830173150 7 0.0 1.6 0.00 0.00 0.00 95 1032.4
20260830172003 7 172 1.6 1.6 0.00 0.00 0.00 95 1032.6
20260830170813 7 171 1.6 1.6 0.00 0.00 0.00 95 1032.6
20260830165625 7 172 0.0 1.6 0.00 0.00 0.00 95 1032.7
20260830164435 7 0.0 0.0 0.00 0.00 0.00 95 1032.9
20260830163144 8 172 1.6 1.6 0.00 0.00 0.00 95 1033.2
20260830161956 7 154 1.6 3.2 0.00 0.00 0.00 95 1033.1
20260830160806 7 140 1.6 3.2 0.00 0.00 0.00 94 1033.2
20260830155618 7 200 0.0 1.6 0.00 0.00 0.00 94 1033.4
20260830154429 7 212 0.0 1.6 0.00 0.00 0.00 93 1033.5
20260830153241 8 166 1.6 3.2 0.00 0.00 0.00 93 1033.7
20260830151948 8 168 1.6 3.2 0.00 0.00 0.00 93 1033.7
20260830150800 8 158 1.6 3.2 0.00 0.00 0.00 93 1033.7
20260830145611 8 161 1.6 1.6 0.00 0.00 0.00 93 1033.7
20260830144127 8 0.0 0.0 0.00 0.00 0.00 92 1034.0
20260830143012 8 0.0 0.0 0.00 0.00 0.00 92 1033.9
20260830141743 8 169 1.6 1.6 0.00 0.00 0.00 92 1033.9
20260830140532 8 179 0.0 1.6 0.00 0.00 0.00 92 1033.8
20260830135306 8 156 1.6 3.2 0.00 0.00 0.00 92 1033.7
20260830134114 8 0.0 0.0 0.00 0.00 0.00 92 1033.9
20260830132926 9 0.0 0.0 0.00 0.00 0.00 91 1033.9
20260830131737 9 176 1.6 1.6 0.00 0.00 0.00 91 1034.1
20260830130446 9 176 0.0 1.6 0.00 0.00 0.00 91 1034.0
20260830125337 9 160 1.6 3.2 0.00 0.00 0.00 91 1034.2
20260830124148 9 167 0.0 1.6 0.00 0.00 0.00 91 1034.2
20260830122920 10 0.0 0.0 0.00 0.00 0.00 90 1034.1
20260830121732 10 0.0 0.0 0.00 0.00 0.00 89 1034.1
20260830120543 10 0.0 0.0 0.00 0.00 0.00 87 1034.1
20260830115252 11 0.0 0.0 0.00 0.00 0.00 85 1033.9
20260830114103 12 242 1.6 1.6 0.00 0.00 0.00 82 1033.9
20260830112915 12 120 3.2 4.8 0.00 0.00 0.00 83 1033.9
20260830111806 12 130 4.8 6.4 0.00 0.00 0.00 86 1033.8
20260830110538 11 105 4.8 6.4 0.00 0.00 0.00 88 1033.5
20260830105326 11 124 1.6 3.2 0.00 0.00 0.00 88 1033.5
20260830104137 11 135 0.0 4.8 0.00 0.00 0.00 88 1033.1
20260830102909 11 84 6.4 9.7 0.00 0.00 0.00 90 1033.2
20260830101721 11 0.0 0.0 0.00 0.00 0.00 88 1032.8
20260830100532 11 0.0 0.0 0.00 0.00 0.00 88 1032.9
20260830095344 11 141 1.6 3.2 0.00 0.00 0.00 87 1032.9
20260830094052 12 0.0 1.6 0.00 0.00 0.00 85 1032.8